Time,TemperatureF,DewpointF,PressureIn,WindDirection,WindDirectionDegrees,WindSpeedMPH,WindSpeedGustMPH,Humidity,HourlyPrecipIn,Conditions,Clouds,dailyrainin,SolarRadiationWatts/m^2,SoftwareType,DateUTC
2013-03-02 00:00:00,27.4,12.6,30.42,WNW,288,3.0,-999.0,59,-99.99,,,0.00,0.0,cwc,2013-03-02 07:00:00,
2013-03-02 00:05:00,27.1,12.7,30.42,WNW,288,3.0,-999.0,60,-99.99,,,0.00,0.0,cwc,2013-03-02 07:05:00,
2013-03-02 00:10:00,26.8,12.8,30.42,WNW,288,1.0,-999.0,61,-99.99,,,0.00,0.0,cwc,2013-03-02 07:10:00,
2013-03-02 00:15:00,26.8,12.8,30.43,WNW,288,0.0,-999.0,61,-99.99,,,0.00,0.0,cwc,2013-03-02 07:15:00,
2013-03-02 00:20:00,26.7,12.7,30.42,WNW,288,3.0,-999.0,61,-99.99,,,0.00,0.0,cwc,2013-03-02 07:20:00,
2013-03-02 00:30:00,26.5,12.5,30.42,WNW,288,0.0,-999.0,61,-99.99,,,0.00,0.0,cwc,2013-03-02 07:30:00,
2013-03-02 00:35:00,26.4,12.7,30.43,WNW,288,0.0,-999.0,62,-99.99,,,0.00,0.0,cwc,2013-03-02 07:35:00,
2013-03-02 00:40:00,26.4,12.7,30.42,WNW,288,1.0,-999.0,62,-99.99,,,0.00,0.0,cwc,2013-03-02 07:40:00,
2013-03-02 00:45:00,26.3,12.6,30.42,WNW,288,3.0,-999.0,62,-99.99,,,0.00,0.0,cwc,2013-03-02 07:45:00,
2013-03-02 00:50:00,26.2,12.9,30.43,WNW,287,3.0,-999.0,63,-99.99,,,0.00,0.0,cwc,2013-03-02 07:50:00,
2013-03-02 00:55:00,26.4,12.7,30.43,WNW,288,0.0,-999.0,62,-99.99,,,0.00,0.0,cwc,2013-03-02 07:55:00,
2013-03-02 01:00:00,26.3,12.6,30.43,WNW,288,2.0,-999.0,62,-99.99,,,0.00,0.0,cwc,2013-03-02 08:00:00,
2013-03-02 01:05:00,26.1,12.4,30.43,WNW,287,1.0,-999.0,62,-99.99,,,0.00,0.0,cwc,2013-03-02 08:05:00,
2013-03-02 01:10:00,25.7,12.4,30.44,WNW,288,1.0,-999.0,63,-99.99,,,0.00,0.0,cwc,2013-03-02 08:10:00,
2013-03-02 01:15:00,25.5,12.5,30.44,WNW,288,2.0,-999.0,64,-99.99,,,0.00,0.0,cwc,2013-03-02 08:15:00,
2013-03-02 01:20:00,25.6,12.6,30.44,WNW,287,1.0,-999.0,64,-99.99,,,0.00,0.0,cwc,2013-03-02 08:20:00,
2013-03-02 01:25:00,25.7,12.7,30.44,WNW,287,2.0,-999.0,64,-99.99,,,0.00,0.0,cwc,2013-03-02 08:25:00,
2013-03-02 01:30:00,25.6,12.6,30.44,WNW,288,1.0,-999.0,64,-99.99,,,0.00,0.0,cwc,2013-03-02 08:30:00,
2013-03-02 01:40:00,25.2,12.2,30.43,WNW,288,1.0,-999.0,64,-99.99,,,0.00,0.0,cwc,2013-03-02 08:40:00,
2013-03-02 01:45:00,25.1,12.5,30.43,WNW,288,0.0,-999.0,65,-99.99,,,0.00,0.0,cwc,2013-03-02 08:45:00,
2013-03-02 01:50:00,24.9,12.3,30.43,WNW,288,0.0,-999.0,65,-99.99,,,0.00,0.0,cwc,2013-03-02 08:50:00,
2013-03-02 01:55:00,24.7,12.1,30.43,WNW,287,0.0,-999.0,65,-99.99,,,0.00,0.0,cwc,2013-03-02 08:55:00,
2013-03-02 02:00:00,24.5,11.9,30.44,WNW,287,0.0,-999.0,65,-99.99,,,0.00,0.0,cwc,2013-03-02 09:00:00,
2013-03-02 02:05:00,24.3,12.4,30.44,WNW,287,0.0,-999.0,67,-99.99,,,0.00,0.0,cwc,2013-03-02 09:05:00,
2013-03-02 02:10:00,24.0,12.1,30.44,WNW,288,2.0,-999.0,67,-99.99,,,0.00,0.0,cwc,2013-03-02 09:10:00,
2013-03-02 02:15:00,24.0,12.5,30.44,WNW,288,0.0,-999.0,68,-99.99,,,0.00,0.0,cwc,2013-03-02 09:15:00,
2013-03-02 02:20:00,24.1,12.6,30.44,WNW,287,0.0,-999.0,68,-99.99,,,0.00,0.0,cwc,2013-03-02 09:20:00,
2013-03-02 02:25:00,24.0,12.1,30.44,WNW,288,0.0,-999.0,67,-99.99,,,0.00,0.0,cwc,2013-03-02 09:25:00,
2013-03-02 02:30:00,23.8,12.3,30.43,WNW,288,1.0,-999.0,68,-99.99,,,0.00,0.0,cwc,2013-03-02 09:30:00,
2013-03-02 02:35:00,23.7,11.8,30.44,WNW,288,0.0,-999.0,67,-99.99,,,0.00,0.0,cwc,2013-03-02 09:35:00,
2013-03-02 02:40:00,23.5,11.6,30.43,WNW,287,0.0,-999.0,67,-99.99,,,0.00,0.0,cwc,2013-03-02 09:40:00,
2013-03-02 02:45:00,23.3,12.1,30.43,WNW,288,0.0,-999.0,69,-99.99,,,0.00,0.0,cwc,2013-03-02 09:45:00,
2013-03-02 02:50:00,23.1,11.9,30.43,WNW,288,0.0,-999.0,69,-99.99,,,0.00,0.0,cwc,2013-03-02 09:50:00,
2013-03-02 02:55:00,22.9,11.7,30.43,WNW,287,2.0,-999.0,69,-99.99,,,0.00,0.0,cwc,2013-03-02 09:55:00,
2013-03-02 03:00:00,22.8,12.0,30.43,WNW,288,2.0,-999.0,70,-99.99,,,0.00,0.0,cwc,2013-03-02 10:00:00,
2013-03-02 03:05:00,22.7,11.9,30.43,WNW,288,0.0,-999.0,70,-99.99,,,0.00,0.0,cwc,2013-03-02 10:05:00,
2013-03-02 03:10:00,22.5,11.3,30.43,WNW,288,0.0,-999.0,69,-99.99,,,0.00,0.0,cwc,2013-03-02 10:10:00,
2013-03-02 03:15:00,22.2,11.0,30.44,WNW,287,0.0,-999.0,69,-99.99,,,0.00,0.0,cwc,2013-03-02 10:15:00,
2013-03-02 03:25:00,21.6,11.5,30.44,WNW,288,0.0,-999.0,72,-99.99,,,0.00,0.0,cwc,2013-03-02 10:25:00,
2013-03-02 03:30:00,21.4,11.7,30.44,WNW,287,0.0,-999.0,73,-99.99,,,0.00,0.0,cwc,2013-03-02 10:30:00,
2013-03-02 03:40:00,21.5,11.8,30.44,WNW,288,2.0,-999.0,73,-99.99,,,0.00,0.0,cwc,2013-03-02 10:40:00,
2013-03-02 03:45:00,21.3,11.2,30.44,WNW,288,0.0,-999.0,72,-99.99,,,0.00,0.0,cwc,2013-03-02 10:45:00,
2013-03-02 03:50:00,21.1,11.0,30.44,WNW,288,0.0,-999.0,72,-99.99,,,0.00,0.0,cwc,2013-03-02 10:50:00,
2013-03-02 03:55:00,20.9,11.2,30.44,WNW,287,1.0,-999.0,73,-99.99,,,0.00,0.0,cwc,2013-03-02 10:55:00,
2013-03-02 04:00:00,20.6,11.2,30.44,WNW,288,0.0,-999.0,74,-99.99,,,0.00,0.0,cwc,2013-03-02 11:00:00,
2013-03-02 04:05:00,20.4,11.0,30.45,WNW,288,3.0,-999.0,74,-99.99,,,0.00,0.0,cwc,2013-03-02 11:05:00,
2013-03-02 04:10:00,20.6,12.0,30.45,WNW,287,2.0,-999.0,76,-99.99,,,0.00,0.0,cwc,2013-03-02 11:10:00,
2013-03-02 04:15:00,21.1,12.5,30.45,WNW,288,2.0,-999.0,76,-99.99,,,0.00,0.0,cwc,2013-03-02 11:15:00,
2013-03-02 04:20:00,21.4,12.0,30.45,WNW,288,2.0,-999.0,74,-99.99,,,0.00,0.0,cwc,2013-03-02 11:20:00,
2013-03-02 04:25:00,21.3,11.6,30.45,WNW,288,1.0,-999.0,73,-99.99,,,0.00,0.0,cwc,2013-03-02 11:25:00,
2013-03-02 04:30:00,21.1,11.7,30.45,WNW,287,0.0,-999.0,74,-99.99,,,0.00,0.0,cwc,2013-03-02 11:30:00,
2013-03-02 04:35:00,20.9,11.5,30.45,WNW,288,0.0,-999.0,74,-99.99,,,0.00,0.0,cwc,2013-03-02 11:35:00,
2013-03-02 04:40:00,20.7,11.3,30.45,WNW,288,2.0,-999.0,74,-99.99,,,0.00,0.0,cwc,2013-03-02 11:40:00,
2013-03-02 04:45:00,20.4,11.4,30.45,WNW,287,3.0,-999.0,75,-99.99,,,0.00,0.0,cwc,2013-03-02 11:45:00,
2013-03-02 04:50:00,20.4,11.8,30.46,WNW,287,2.0,-999.0,76,-99.99,,,0.00,0.0,cwc,2013-03-02 11:50:00,
2013-03-02 04:55:00,20.7,11.7,30.46,WNW,288,2.0,-999.0,75,-99.99,,,0.00,0.0,cwc,2013-03-02 11:55:00,
2013-03-02 05:00:00,20.4,11.4,30.46,WNW,288,0.0,-999.0,75,-99.99,,,0.00,0.0,cwc,2013-03-02 12:00:00,
2013-03-02 05:05:00,20.1,11.1,30.46,WNW,288,2.0,-999.0,75,-99.99,,,0.00,0.0,cwc,2013-03-02 12:05:00,
2013-03-02 05:10:00,19.9,11.3,30.46,WNW,288,0.0,-999.0,76,-99.99,,,0.00,0.0,cwc,2013-03-02 12:10:00,
2013-03-02 05:15:00,19.7,11.1,30.46,WNW,288,0.0,-999.0,76,-99.99,,,0.00,0.0,cwc,2013-03-02 12:15:00,
2013-03-02 05:20:00,19.7,11.4,30.46,WNW,287,0.0,-999.0,77,-99.99,,,0.00,0.0,cwc,2013-03-02 12:20:00,
2013-03-02 05:25:00,19.7,11.1,30.46,WNW,287,0.0,-999.0,76,-99.99,,,0.00,0.0,cwc,2013-03-02 12:25:00,
2013-03-02 05:30:00,19.5,10.9,30.46,WNW,288,2.0,-999.0,76,-99.99,,,0.00,0.0,cwc,2013-03-02 12:30:00,
2013-03-02 05:35:00,19.5,11.2,30.46,WNW,288,1.0,-999.0,77,-99.99,,,0.00,0.0,cwc,2013-03-02 12:35:00,
2013-03-02 05:40:00,19.4,11.5,30.46,WNW,288,2.0,-999.0,78,-99.99,,,0.00,0.0,cwc,2013-03-02 12:40:00,
2013-03-02 05:45:00,19.6,11.7,30.46,WNW,287,2.0,-999.0,78,-99.99,,,0.00,0.0,cwc,2013-03-02 12:45:00,
2013-03-02 05:55:00,19.7,11.4,30.46,WNW,288,0.0,-999.0,77,-99.99,,,0.00,0.0,cwc,2013-03-02 12:55:00,
2013-03-02 06:00:00,19.6,11.3,30.46,WNW,288,2.0,-999.0,77,-99.99,,,0.00,0.0,cwc,2013-03-02 13:00:00,
2013-03-02 06:05:00,19.7,11.8,30.46,WNW,287,1.0,-999.0,78,-99.99,,,0.00,0.0,cwc,2013-03-02 13:05:00,
2013-03-02 06:10:00,19.5,11.2,30.46,WNW,288,0.0,-999.0,77,-99.99,,,0.00,0.0,cwc,2013-03-02 13:10:00,
2013-03-02 06:15:00,19.4,11.5,30.47,WNW,288,0.0,-999.0,78,-99.99,,,0.00,0.0,cwc,2013-03-02 13:15:00,
2013-03-02 06:20:00,19.3,11.0,30.47,WNW,287,0.0,-999.0,77,-99.99,,,0.00,0.0,cwc,2013-03-02 13:20:00,
2013-03-02 06:25:00,19.1,11.2,30.47,WNW,288,1.0,-999.0,78,-99.99,,,0.00,0.0,cwc,2013-03-02 13:25:00,
2013-03-02 06:30:00,19.1,11.5,30.47,WNW,288,0.0,-999.0,79,-99.99,,,0.00,0.0,cwc,2013-03-02 13:30:00,
2013-03-02 06:35:00,19.1,11.2,30.47,WNW,288,1.0,-999.0,78,-99.99,,,0.00,5.0,cwc,2013-03-02 13:35:00,
2013-03-02 06:40:00,19.1,11.5,30.48,WNW,288,2.0,-999.0,79,-99.99,,,0.00,7.0,cwc,2013-03-02 13:40:00,
2013-03-02 06:50:00,19.2,11.3,30.48,WNW,288,1.0,-999.0,78,-99.99,,,0.00,11.0,cwc,2013-03-02 13:50:00,
2013-03-02 06:55:00,19.2,11.3,30.48,WNW,287,0.0,-999.0,78,-99.99,,,0.00,21.0,cwc,2013-03-02 13:55:00,
2013-03-02 07:00:00,19.1,11.2,30.48,WNW,287,0.0,-999.0,78,-99.99,,,0.00,39.0,cwc,2013-03-02 14:00:00,
2013-03-02 07:05:00,19.2,11.6,30.48,WNW,288,0.0,-999.0,79,-99.99,,,0.00,54.0,cwc,2013-03-02 14:05:00,
2013-03-02 07:10:00,19.5,11.9,30.48,WNW,288,0.0,-999.0,79,-99.99,,,0.00,70.0,cwc,2013-03-02 14:10:00,
2013-03-02 07:15:00,19.7,12.5,30.48,WNW,288,0.0,-999.0,80,-99.99,,,0.00,88.0,cwc,2013-03-02 14:15:00,
2013-03-02 07:20:00,20.3,13.1,30.48,WNW,287,0.0,-999.0,80,-99.99,,,0.00,104.0,cwc,2013-03-02 14:20:00,
2013-03-02 07:25:00,20.9,13.3,30.48,WNW,288,2.0,-999.0,79,-99.99,,,0.00,123.0,cwc,2013-03-02 14:25:00,
2013-03-02 07:30:00,21.7,14.1,30.48,WNW,288,0.0,-999.0,79,-99.99,,,0.00,142.0,cwc,2013-03-02 14:30:00,
2013-03-02 07:35:00,22.7,14.8,30.48,WNW,287,0.0,-999.0,78,-99.99,,,0.00,162.0,cwc,2013-03-02 14:35:00,
2013-03-02 07:40:00,23.9,14.9,30.49,WNW,287,0.0,-999.0,75,-99.99,,,0.00,183.0,cwc,2013-03-02 14:40:00,
2013-03-02 07:45:00,24.9,15.5,30.48,WNW,288,0.0,-999.0,74,-99.99,,,0.00,202.0,cwc,2013-03-02 14:45:00,
2013-03-02 07:50:00,25.8,15.4,30.48,WNW,288,0.0,-999.0,71,-99.99,,,0.00,221.0,cwc,2013-03-02 14:50:00,
2013-03-02 07:55:00,26.9,15.4,30.49,WNW,288,2.0,-999.0,68,-99.99,,,0.00,250.0,cwc,2013-03-02 14:55:00,
2013-03-02 08:00:00,27.7,15.1,30.49,WNW,288,1.0,-999.0,65,-99.99,,,0.00,271.0,cwc,2013-03-02 15:00:00,
2013-03-02 08:05:00,28.4,15.4,30.48,WNW,288,2.0,-999.0,64,-99.99,,,0.00,297.0,cwc,2013-03-02 15:05:00,
2013-03-02 08:10:00,29.2,16.2,30.48,WNW,287,1.0,-999.0,64,-99.99,,,0.00,311.0,cwc,2013-03-02 15:10:00,
2013-03-02 08:15:00,30.2,16.5,30.48,WNW,287,0.0,-999.0,62,-99.99,,,0.00,332.0,cwc,2013-03-02 15:15:00,
2013-03-02 08:25:00,32.7,17.6,30.48,WNW,288,0.0,-999.0,58,-99.99,,,0.00,285.0,cwc,2013-03-02 15:25:00,
2013-03-02 08:30:00,34.0,17.8,30.48,WNW,288,0.0,-999.0,55,-99.99,,,0.00,327.0,cwc,2013-03-02 15:30:00,
2013-03-02 08:35:00,35.0,18.1,30.48,WNW,287,0.0,-999.0,53,-99.99,,,0.00,366.0,cwc,2013-03-02 15:35:00,
2013-03-02 08:40:00,36.1,18.5,30.48,WNW,287,0.0,-999.0,51,-99.99,,,0.00,359.0,cwc,2013-03-02 15:40:00,
2013-03-02 08:45:00,37.0,19.0,30.48,WNW,288,0.0,-999.0,50,-99.99,,,0.00,387.0,cwc,2013-03-02 15:45:00,
2013-03-02 08:50:00,37.8,19.1,30.48,WNW,288,3.0,-999.0,48,-99.99,,,0.00,439.0,cwc,2013-03-02 15:50:00,
2013-03-02 09:00:00,39.0,19.9,30.47,WNW,288,0.0,-999.0,47,-99.99,,,0.00,473.0,cwc,2013-03-02 16:00:00,
2013-03-02 09:05:00,40.1,20.3,30.47,WNW,288,1.0,-999.0,45,-99.99,,,0.00,494.0,cwc,2013-03-02 16:05:00,
2013-03-02 09:10:00,41.4,20.9,30.47,WNW,291,1.0,-999.0,43,-99.99,,,0.00,510.0,cwc,2013-03-02 16:10:00,
2013-03-02 09:15:00,42.0,20.8,30.46,ENE,58,4.0,-999.0,41,-99.99,,,0.00,533.0,cwc,2013-03-02 16:15:00,
2013-03-02 09:20:00,42.1,21.2,30.46,ENE,61,9.0,-999.0,42,-99.99,,,0.00,499.0,cwc,2013-03-02 16:20:00,
2013-03-02 09:25:00,42.1,20.9,30.46,NNE,22,5.0,-999.0,41,-99.99,,,0.00,548.0,cwc,2013-03-02 16:25:00,
2013-03-02 09:30:00,42.4,21.5,30.45,NE,37,3.0,-999.0,42,-99.99,,,0.00,520.0,cwc,2013-03-02 16:30:00,
2013-03-02 09:35:00,42.7,21.8,30.45,NE,46,4.0,-999.0,42,-99.99,,,0.00,427.0,cwc,2013-03-02 16:35:00,
2013-03-02 09:40:00,43.1,21.9,30.45,NE,48,4.0,-999.0,41,-99.99,,,0.00,555.0,cwc,2013-03-02 16:40:00,
2013-03-02 09:45:00,43.4,21.8,30.44,NE,49,3.0,-999.0,40,-99.99,,,0.00,566.0,cwc,2013-03-02 16:45:00,
2013-03-02 09:50:00,43.7,21.7,30.44,NE,52,7.0,-999.0,39,-99.99,,,0.00,596.0,cwc,2013-03-02 16:50:00,
2013-03-02 09:55:00,43.7,22.1,30.44,ENE,59,5.0,-999.0,40,-99.99,,,0.00,615.0,cwc,2013-03-02 16:55:00,
2013-03-02 10:00:00,44.1,22.5,30.44,NE,55,5.0,-999.0,40,-99.99,,,0.00,638.0,cwc,2013-03-02 17:00:00,
2013-03-02 10:05:00,44.4,22.4,30.43,ENE,61,2.0,-999.0,39,-99.99,,,0.00,621.0,cwc,2013-03-02 17:05:00,
2013-03-02 10:10:00,44.9,22.9,30.43,ENE,61,4.0,-999.0,39,-99.99,,,0.00,635.0,cwc,2013-03-02 17:10:00,
2013-03-02 10:15:00,45.5,23.2,30.43,ENE,61,3.0,-999.0,38,-99.99,,,0.00,670.0,cwc,2013-03-02 17:15:00,
2013-03-02 10:20:00,46.1,23.4,30.42,NE,53,7.0,-999.0,37,-99.99,,,0.00,612.0,cwc,2013-03-02 17:20:00,
2013-03-02 10:25:00,46.2,23.5,30.42,NE,53,7.0,-999.0,37,-99.99,,,0.00,684.0,cwc,2013-03-02 17:25:00,
2013-03-02 10:30:00,46.6,23.9,30.42,NE,42,6.0,-999.0,37,-99.99,,,0.00,691.0,cwc,2013-03-02 17:30:00,
2013-03-02 10:35:00,47.0,24.0,30.42,ENE,68,9.0,-999.0,36,-99.99,,,0.00,731.0,cwc,2013-03-02 17:35:00,
2013-03-02 10:40:00,47.5,24.5,30.41,NE,56,6.0,-999.0,36,-99.99,,,0.00,694.0,cwc,2013-03-02 17:40:00,
2013-03-02 10:45:00,47.9,24.5,30.41,NE,51,5.0,-999.0,35,-99.99,,,0.00,715.0,cwc,2013-03-02 17:45:00,
2013-03-02 10:50:00,48.2,24.8,30.40,NE,48,3.0,-999.0,35,-99.99,,,0.00,687.0,cwc,2013-03-02 17:50:00,
2013-03-02 10:55:00,48.7,24.9,30.40,NE,51,2.0,-999.0,34,-99.99,,,0.00,756.0,cwc,2013-03-02 17:55:00,
2013-03-02 11:00:00,49.5,25.4,30.39,NE,34,4.0,-999.0,33,-99.99,,,0.00,754.0,cwc,2013-03-02 18:00:00,
2013-03-02 11:05:00,49.8,25.7,30.39,NE,48,6.0,-999.0,33,-99.99,,,0.00,693.0,cwc,2013-03-02 18:05:00,
2013-03-02 11:15:00,50.5,26.0,30.39,NE,54,6.0,-999.0,32,-99.99,,,0.00,763.0,cwc,2013-03-02 18:15:00,
2013-03-02 11:20:00,50.8,26.3,30.38,ENE,58,5.0,-999.0,32,-99.99,,,0.00,779.0,cwc,2013-03-02 18:20:00,
2013-03-02 11:25:00,51.4,26.6,30.38,ENE,59,5.0,-999.0,31,-99.99,,,0.00,788.0,cwc,2013-03-02 18:25:00,
2013-03-02 11:30:00,51.8,27.0,30.37,ENE,59,2.0,-999.0,31,-99.99,,,0.00,803.0,cwc,2013-03-02 18:30:00,
2013-03-02 11:35:00,52.3,27.1,30.37,ENE,57,0.0,-999.0,30,-99.99,,,0.00,754.0,cwc,2013-03-02 18:35:00,
2013-03-02 11:40:00,52.6,27.0,30.37,ENE,59,3.0,-999.0,29,-99.99,,,0.00,812.0,cwc,2013-03-02 18:40:00,
2013-03-02 11:45:00,52.9,27.3,30.36,ENE,59,2.0,-999.0,29,-99.99,,,0.00,826.0,cwc,2013-03-02 18:45:00,
2013-03-02 11:50:00,53.4,27.8,30.36,ENE,59,3.0,-999.0,29,-99.99,,,0.00,810.0,cwc,2013-03-02 18:50:00,
2013-03-02 11:55:00,53.9,28.0,30.36,ENE,59,2.0,-999.0,28,-99.99,,,0.00,759.0,cwc,2013-03-02 18:55:00,
2013-03-02 12:00:00,54.4,28.1,30.35,ENE,60,0.0,-999.0,27,-99.99,,,0.00,796.0,cwc,2013-03-02 19:00:00,
2013-03-02 12:05:00,54.9,28.6,30.35,ENE,60,0.0,-999.0,27,-99.99,,,0.00,800.0,cwc,2013-03-02 19:05:00,
2013-03-02 12:10:00,55.3,29.0,30.35,NNE,22,0.0,-999.0,27,-99.99,,,0.00,802.0,cwc,2013-03-02 19:10:00,
2013-03-02 12:15:00,55.3,28.7,30.34,NE,38,2.0,-999.0,26,-99.99,,,0.00,780.0,cwc,2013-03-02 19:15:00,
2013-03-02 12:20:00,55.6,29.0,30.33,NE,42,2.0,-999.0,26,-99.99,,,0.00,765.0,cwc,2013-03-02 19:20:00,
2013-03-02 12:25:00,56.0,29.0,30.33,SSW,211,1.0,-999.0,25,-99.99,,,0.00,803.0,cwc,2013-03-02 19:25:00,
2013-03-02 12:30:00,56.4,29.4,30.32,SW,214,0.0,-999.0,25,-99.99,,,0.00,800.0,cwc,2013-03-02 19:30:00,
2013-03-02 12:35:00,56.8,29.8,30.32,SW,214,0.0,-999.0,25,-99.99,,,0.00,817.0,cwc,2013-03-02 19:35:00,
2013-03-02 12:40:00,57.3,30.3,30.31,SSW,213,0.0,-999.0,25,-99.99,,,0.00,722.0,cwc,2013-03-02 19:40:00,
2013-03-02 12:45:00,58.0,30.6,30.31,SW,216,0.0,-999.0,24,-99.99,,,0.00,846.0,cwc,2013-03-02 19:45:00,
2013-03-02 12:50:00,58.6,30.9,30.31,SW,219,4.0,-999.0,23,-99.99,,,0.00,807.0,cwc,2013-03-02 19:50:00,
2013-03-02 12:55:00,58.6,30.9,30.31,North,360,2.0,-999.0,23,-99.99,,,0.00,680.0,cwc,2013-03-02 19:55:00,
2013-03-02 13:00:00,58.4,30.7,30.30,North,5,0.0,-999.0,23,-99.99,,,0.00,624.0,cwc,2013-03-02 20:00:00,
2013-03-02 13:05:00,58.3,30.6,30.29,North,5,0.0,-999.0,23,-99.99,,,0.00,596.0,cwc,2013-03-02 20:05:00,
2013-03-02 13:10:00,58.1,30.4,30.29,North,360,5.0,-999.0,23,-99.99,,,0.00,566.0,cwc,2013-03-02 20:10:00,
2013-03-02 13:15:00,57.4,30.0,30.29,North,10,3.0,-999.0,24,-99.99,,,0.00,497.0,cwc,2013-03-02 20:15:00,
2013-03-02 13:20:00,57.3,29.9,30.29,NNE,19,3.0,-999.0,24,-99.99,,,0.00,454.0,cwc,2013-03-02 20:20:00,
2013-03-02 13:25:00,57.3,29.9,30.29,NNE,19,0.0,-999.0,24,-99.99,,,0.00,636.0,cwc,2013-03-02 20:25:00,
2013-03-02 13:30:00,58.0,30.6,30.28,NNE,19,0.0,-999.0,24,-99.99,,,0.00,765.0,cwc,2013-03-02 20:30:00,
2013-03-02 13:35:00,58.5,31.1,30.28,NNE,19,0.0,-999.0,24,-99.99,,,0.00,752.0,cwc,2013-03-02 20:35:00,
2013-03-02 13:40:00,59.1,31.7,30.27,NNE,22,3.0,-999.0,24,-99.99,,,0.00,749.0,cwc,2013-03-02 20:40:00,
2013-03-02 13:45:00,59.8,32.1,30.27,WNW,290,0.0,-999.0,23,-99.99,,,0.00,737.0,cwc,2013-03-02 20:45:00,
2013-03-02 13:50:00,60.1,32.4,30.27,SE,142,2.0,-999.0,23,-99.99,,,0.00,728.0,cwc,2013-03-02 20:50:00,
2013-03-02 13:55:00,60.1,32.4,30.26,SE,138,4.0,-999.0,23,-99.99,,,0.00,721.0,cwc,2013-03-02 20:55:00,
2013-03-02 14:00:00,60.6,32.9,30.26,SE,139,0.0,-999.0,23,-99.99,,,0.00,721.0,cwc,2013-03-02 21:00:00,
2013-03-02 14:05:00,60.8,32.7,30.26,SW,229,0.0,-999.0,22,-99.99,,,0.00,703.0,cwc,2013-03-02 21:05:00,
2013-03-02 14:10:00,60.9,33.2,30.26,SW,222,0.0,-999.0,23,-99.99,,,0.00,696.0,cwc,2013-03-02 21:10:00,
2013-03-02 14:15:00,61.4,33.3,30.25,SW,220,6.0,-999.0,22,-99.99,,,0.00,684.0,cwc,2013-03-02 21:15:00,
2013-03-02 14:20:00,61.1,33.4,30.25,SW,220,2.0,-999.0,23,-99.99,,,0.00,673.0,cwc,2013-03-02 21:20:00,
2013-03-02 14:25:00,61.5,33.4,30.25,SW,223,1.0,-999.0,22,-99.99,,,0.00,668.0,cwc,2013-03-02 21:25:00,
2013-03-02 14:30:00,61.6,33.5,30.24,SW,219,3.0,-999.0,22,-99.99,,,0.00,661.0,cwc,2013-03-02 21:30:00,
2013-03-02 14:35:00,61.6,33.5,30.24,SW,234,2.0,-999.0,22,-99.99,,,0.00,580.0,cwc,2013-03-02 21:35:00,
2013-03-02 14:40:00,61.4,33.3,30.24,South,188,6.0,-999.0,22,-99.99,,,0.00,596.0,cwc,2013-03-02 21:40:00,
2013-03-02 14:45:00,61.7,33.6,30.24,South,191,0.0,-999.0,22,-99.99,,,0.00,584.0,cwc,2013-03-02 21:45:00,
2013-03-02 14:50:00,62.0,33.6,30.24,ESE,121,0.0,-999.0,21,-99.99,,,0.00,606.0,cwc,2013-03-02 21:50:00,
2013-03-02 14:55:00,62.5,34.1,30.23,South,172,1.0,-999.0,21,-99.99,,,0.00,471.0,cwc,2013-03-02 21:55:00,
2013-03-02 15:00:00,62.2,33.8,30.23,SSW,212,6.0,-999.0,21,-99.99,,,0.00,429.0,cwc,2013-03-02 22:00:00,
2013-03-02 15:05:00,61.7,33.3,30.23,SSW,195,3.0,-999.0,21,-99.99,,,0.00,341.0,cwc,2013-03-02 22:05:00,
2013-03-02 15:10:00,61.3,32.9,30.23,SSW,195,0.0,-999.0,21,-99.99,,,0.00,425.0,cwc,2013-03-02 22:10:00,
2013-03-02 15:15:00,61.3,32.9,30.22,SSW,206,7.0,-999.0,21,-99.99,,,0.00,489.0,cwc,2013-03-02 22:15:00,
2013-03-02 15:20:00,61.1,32.7,30.22,SW,221,1.0,-999.0,21,-99.99,,,0.00,522.0,cwc,2013-03-02 22:20:00,
2013-03-02 15:30:00,62.2,33.8,30.22,SSW,207,3.0,-999.0,21,-99.99,,,0.00,489.0,cwc,2013-03-02 22:30:00,
2013-03-02 15:40:00,62.6,33.8,30.21,WSW,256,0.0,-999.0,20,-99.99,,,0.00,415.0,cwc,2013-03-02 22:40:00,
2013-03-02 15:45:00,63.0,34.2,30.21,WSW,243,0.0,-999.0,20,-99.99,,,0.00,366.0,cwc,2013-03-02 22:45:00,
2013-03-02 15:50:00,63.2,34.4,30.21,South,180,2.0,-999.0,20,-99.99,,,0.00,397.0,cwc,2013-03-02 22:50:00,
2013-03-02 15:55:00,63.5,34.7,30.20,WSW,255,5.0,-999.0,20,-99.99,,,0.00,355.0,cwc,2013-03-02 22:55:00,
2013-03-02 16:00:00,63.2,34.4,30.20,SSW,210,5.0,-999.0,20,-99.99,,,0.00,302.0,cwc,2013-03-02 23:00:00,
2013-03-02 16:05:00,62.7,33.9,30.20,SW,227,5.0,-999.0,20,-99.99,,,0.00,308.0,cwc,2013-03-02 23:05:00,
2013-03-02 16:10:00,62.6,33.8,30.20,WSW,237,1.0,-999.0,20,-99.99,,,0.00,339.0,cwc,2013-03-02 23:10:00,
2013-03-02 16:15:00,62.7,33.9,30.20,WSW,237,0.0,-999.0,20,-99.99,,,0.00,329.0,cwc,2013-03-02 23:15:00,
2013-03-02 16:20:00,62.9,34.5,30.20,SW,218,6.0,-999.0,21,-99.99,,,0.00,316.0,cwc,2013-03-02 23:20:00,
2013-03-02 16:25:00,62.8,34.4,30.20,SW,221,2.0,-999.0,21,-99.99,,,0.00,294.0,cwc,2013-03-02 23:25:00,
2013-03-02 16:30:00,62.9,34.5,30.20,SSW,209,2.0,-999.0,21,-99.99,,,0.00,271.0,cwc,2013-03-02 23:30:00,
2013-03-02 16:35:00,63.0,34.6,30.20,West,264,4.0,-999.0,21,-99.99,,,0.00,246.0,cwc,2013-03-02 23:35:00,
2013-03-02 16:40:00,62.6,34.2,30.20,SW,236,3.0,-999.0,21,-99.99,,,0.00,211.0,cwc,2013-03-02 23:40:00,
2013-03-02 16:45:00,62.5,34.1,30.19,SW,236,4.0,-999.0,21,-99.99,,,0.00,162.0,cwc,2013-03-02 23:45:00,
2013-03-02 16:50:00,61.7,33.6,30.19,SW,236,1.0,-999.0,22,-99.99,,,0.00,30.0,cwc,2013-03-02 23:50:00,
2013-03-02 16:55:00,61.0,33.3,30.20,SW,236,1.0,-999.0,23,-99.99,,,0.00,26.0,cwc,2013-03-02 23:55:00,
2013-03-02 17:00:00,60.5,32.8,30.20,WSW,238,4.0,-999.0,23,-99.99,,,0.00,25.0,cwc,2013-03-03 00:00:00,
2013-03-02 17:05:00,59.9,32.2,30.19,SW,219,6.0,-999.0,23,-99.99,,,0.00,23.0,cwc,2013-03-03 00:05:00,
2013-03-02 17:10:00,59.4,31.7,30.19,SW,229,5.0,-999.0,23,-99.99,,,0.00,25.0,cwc,2013-03-03 00:10:00,
2013-03-02 17:15:00,59.0,31.3,30.19,SW,229,1.0,-999.0,23,-99.99,,,0.00,26.0,cwc,2013-03-03 00:15:00,
2013-03-02 17:20:00,59.0,31.6,30.19,SW,232,5.0,-999.0,24,-99.99,,,0.00,26.0,cwc,2013-03-03 00:20:00,
2013-03-02 17:25:00,58.9,31.5,30.19,WSW,249,5.0,-999.0,24,-99.99,,,0.00,28.0,cwc,2013-03-03 00:25:00,
2013-03-02 17:30:00,58.7,31.3,30.19,WSW,239,5.0,-999.0,24,-99.99,,,0.00,25.0,cwc,2013-03-03 00:30:00,
2013-03-02 17:35:00,58.6,31.2,30.19,SW,236,2.0,-999.0,24,-99.99,,,0.00,18.0,cwc,2013-03-03 00:35:00,
2013-03-02 17:40:00,58.4,31.0,30.18,WSW,244,3.0,-999.0,24,-99.99,,,0.00,14.0,cwc,2013-03-03 00:40:00,
2013-03-02 17:45:00,58.2,30.8,30.18,WSW,247,2.0,-999.0,24,-99.99,,,0.00,11.0,cwc,2013-03-03 00:45:00,
2013-03-02 17:50:00,58.0,31.0,30.19,WSW,252,4.0,-999.0,25,-99.99,,,0.00,7.0,cwc,2013-03-03 00:50:00,
2013-03-02 17:55:00,57.7,30.7,30.18,WSW,244,4.0,-999.0,25,-99.99,,,0.00,0.0,cwc,2013-03-03 00:55:00,
2013-03-02 18:00:00,57.3,30.3,30.19,WSW,239,4.0,-999.0,25,-99.99,,,0.00,0.0,cwc,2013-03-03 01:00:00,
2013-03-02 18:05:00,57.0,30.0,30.19,WSW,242,3.0,-999.0,25,-99.99,,,0.00,0.0,cwc,2013-03-03 01:05:00,
2013-03-02 18:10:00,56.3,29.7,30.19,WSW,241,4.0,-999.0,26,-99.99,,,0.00,0.0,cwc,2013-03-03 01:10:00,
2013-03-02 18:15:00,56.1,29.5,30.18,WSW,238,5.0,-999.0,26,-99.99,,,0.00,0.0,cwc,2013-03-03 01:15:00,
2013-03-02 18:20:00,55.9,29.3,30.18,WSW,238,4.0,-999.0,26,-99.99,,,0.00,0.0,cwc,2013-03-03 01:20:00,
2013-03-02 18:25:00,55.4,29.1,30.18,WSW,238,2.0,-999.0,27,-99.99,,,0.00,0.0,cwc,2013-03-03 01:25:00,
2013-03-02 18:30:00,54.6,28.3,30.19,WSW,238,2.0,-999.0,27,-99.99,,,0.00,0.0,cwc,2013-03-03 01:30:00,
2013-03-02 18:35:00,53.8,27.9,30.18,WSW,238,5.0,-999.0,28,-99.99,,,0.00,0.0,cwc,2013-03-03 01:35:00,
2013-03-02 18:40:00,52.9,27.0,30.19,WSW,237,3.0,-999.0,28,-99.99,,,0.00,0.0,cwc,2013-03-03 01:40:00,
2013-03-02 18:45:00,52.2,26.6,30.19,WSW,237,3.0,-999.0,29,-99.99,,,0.00,0.0,cwc,2013-03-03 01:45:00,
2013-03-02 18:50:00,51.1,25.9,30.19,SW,236,4.0,-999.0,30,-99.99,,,0.00,0.0,cwc,2013-03-03 01:50:00,
2013-03-02 18:55:00,49.9,25.1,30.19,SW,236,1.0,-999.0,31,-99.99,,,0.00,0.0,cwc,2013-03-03 01:55:00,
2013-03-02 19:00:00,49.1,24.6,30.19,SW,236,0.0,-999.0,32,-99.99,,,0.00,0.0,cwc,2013-03-03 02:00:00,
2013-03-02 19:05:00,48.6,24.1,30.19,SW,236,0.0,-999.0,32,-99.99,,,0.00,0.0,cwc,2013-03-03 02:05:00,
2013-03-02 19:10:00,48.2,23.7,30.19,SW,236,0.0,-999.0,32,-99.99,,,0.00,0.0,cwc,2013-03-03 02:10:00,
2013-03-02 19:15:00,47.9,23.4,30.19,SW,236,1.0,-999.0,32,-99.99,,,0.00,0.0,cwc,2013-03-03 02:15:00,
2013-03-02 19:20:00,47.6,23.5,30.19,WSW,241,0.0,-999.0,33,-99.99,,,0.00,0.0,cwc,2013-03-03 02:20:00,
2013-03-02 19:25:00,47.5,23.4,30.19,WSW,241,0.0,-999.0,33,-99.99,,,0.00,0.0,cwc,2013-03-03 02:25:00,
2013-03-02 19:30:00,47.2,23.1,30.19,WSW,241,0.0,-999.0,33,-99.99,,,0.00,0.0,cwc,2013-03-03 02:30:00,
2013-03-02 19:35:00,46.7,22.9,30.20,WSW,241,1.0,-999.0,34,-99.99,,,0.00,0.0,cwc,2013-03-03 02:35:00,
2013-03-02 19:40:00,46.2,22.4,30.20,WSW,241,1.0,-999.0,34,-99.99,,,0.00,0.0,cwc,2013-03-03 02:40:00,
2013-03-02 19:45:00,45.8,22.4,30.20,WSW,241,0.0,-999.0,35,-99.99,,,0.00,0.0,cwc,2013-03-03 02:45:00,
2013-03-02 19:50:00,45.6,22.2,30.20,WSW,241,2.0,-999.0,35,-99.99,,,0.00,0.0,cwc,2013-03-03 02:50:00,
2013-03-02 19:55:00,45.5,22.1,30.20,WSW,241,0.0,-999.0,35,-99.99,,,0.00,0.0,cwc,2013-03-03 02:55:00,
2013-03-02 20:00:00,45.2,22.2,30.20,WSW,241,3.0,-999.0,36,-99.99,,,0.00,0.0,cwc,2013-03-03 03:00:00,
2013-03-02 20:05:00,45.0,22.0,30.20,WSW,241,0.0,-999.0,36,-99.99,,,0.00,0.0,cwc,2013-03-03 03:05:00,
2013-03-02 20:10:00,44.9,21.9,30.20,WSW,241,0.0,-999.0,36,-99.99,,,0.00,0.0,cwc,2013-03-03 03:10:00,
2013-03-02 20:15:00,44.4,21.7,30.20,WSW,241,0.0,-999.0,37,-99.99,,,0.00,0.0,cwc,2013-03-03 03:15:00,
2013-03-02 20:20:00,44.2,21.5,30.21,WSW,241,0.0,-999.0,37,-99.99,,,0.00,0.0,cwc,2013-03-03 03:20:00,
2013-03-02 20:25:00,44.2,21.5,30.21,WSW,242,3.0,-999.0,37,-99.99,,,0.00,0.0,cwc,2013-03-03 03:25:00,
2013-03-02 20:30:00,44.3,22.0,30.21,WSW,242,2.0,-999.0,38,-99.99,,,0.00,0.0,cwc,2013-03-03 03:30:00,
2013-03-02 20:35:00,44.7,22.0,30.21,WSW,242,0.0,-999.0,37,-99.99,,,0.00,0.0,cwc,2013-03-03 03:35:00,
2013-03-02 20:40:00,44.9,22.2,30.21,WSW,242,4.0,-999.0,37,-99.99,,,0.00,0.0,cwc,2013-03-03 03:40:00,
2013-03-02 20:45:00,45.0,22.3,30.21,WSW,243,4.0,-999.0,37,-99.99,,,0.00,0.0,cwc,2013-03-03 03:45:00,
2013-03-02 20:50:00,45.1,22.8,30.21,North,5,2.0,-999.0,38,-99.99,,,0.00,0.0,cwc,2013-03-03 03:50:00,
2013-03-02 20:55:00,45.1,22.8,30.21,North,5,0.0,-999.0,38,-99.99,,,0.00,0.0,cwc,2013-03-03 03:55:00,
2013-03-02 21:00:00,45.0,22.7,30.21,North,5,4.0,-999.0,38,-99.99,,,0.00,0.0,cwc,2013-03-03 04:00:00,
2013-03-02 21:05:00,44.9,22.6,30.22,North,5,2.0,-999.0,38,-99.99,,,0.00,0.0,cwc,2013-03-03 04:05:00,
2013-03-02 21:15:00,44.8,22.8,30.22,North,360,0.0,-999.0,39,-99.99,,,0.00,0.0,cwc,2013-03-03 04:15:00,
2013-03-02 21:30:00,44.5,22.5,30.21,North,360,4.0,-999.0,39,-99.99,,,0.00,0.0,cwc,2013-03-03 04:30:00,
2013-03-02 21:35:00,44.4,22.4,30.21,North,360,3.0,-999.0,39,-99.99,,,0.00,0.0,cwc,2013-03-03 04:35:00,
2013-03-02 21:40:00,44.2,22.6,30.22,North,360,3.0,-999.0,40,-99.99,,,0.00,0.0,cwc,2013-03-03 04:40:00,
2013-03-02 21:45:00,43.9,22.3,30.22,North,360,2.0,-999.0,40,-99.99,,,0.00,0.0,cwc,2013-03-03 04:45:00,
2013-03-02 21:55:00,42.8,21.6,30.21,North,360,1.0,-999.0,41,-99.99,,,0.00,0.0,cwc,2013-03-03 04:55:00,
2013-03-02 22:00:00,41.6,20.7,30.21,North,360,2.0,-999.0,42,-99.99,,,0.00,0.0,cwc,2013-03-03 05:00:00,
2013-03-02 22:05:00,40.4,19.9,30.21,North,360,2.0,-999.0,43,-99.99,,,0.00,0.0,cwc,2013-03-03 05:05:00,
2013-03-02 22:10:00,39.3,19.5,30.22,NW,312,3.0,-999.0,45,-99.99,,,0.00,0.0,cwc,2013-03-03 05:10:00,
2013-03-02 22:15:00,38.8,19.0,30.22,NW,312,0.0,-999.0,45,-99.99,,,0.00,0.0,cwc,2013-03-03 05:15:00,
2013-03-02 22:20:00,38.0,18.6,30.21,NW,312,1.0,-999.0,46,-99.99,,,0.00,0.0,cwc,2013-03-03 05:20:00,
2013-03-02 22:25:00,37.3,18.6,30.21,NW,311,1.0,-999.0,48,-99.99,,,0.00,0.0,cwc,2013-03-03 05:25:00,
2013-03-02 22:30:00,36.6,18.2,30.21,NW,311,2.0,-999.0,49,-99.99,,,0.00,0.0,cwc,2013-03-03 05:30:00,
2013-03-02 22:35:00,36.1,18.1,30.21,NW,311,2.0,-999.0,50,-99.99,,,0.00,0.0,cwc,2013-03-03 05:35:00,
2013-03-02 22:40:00,35.7,17.7,30.21,NW,311,3.0,-999.0,50,-99.99,,,0.00,0.0,cwc,2013-03-03 05:40:00,
2013-03-02 22:45:00,35.4,17.8,30.21,NW,305,2.0,-999.0,51,-99.99,,,0.00,0.0,cwc,2013-03-03 05:45:00,
2013-03-02 22:55:00,35.1,17.8,30.21,NW,304,4.0,-999.0,52,-99.99,,,0.00,0.0,cwc,2013-03-03 05:55:00,
2013-03-02 23:00:00,34.9,17.6,30.21,NW,304,0.0,-999.0,52,-99.99,,,0.00,0.0,cwc,2013-03-03 06:00:00,
2013-03-02 23:05:00,34.6,17.7,30.20,NW,304,3.0,-999.0,53,-99.99,,,0.00,0.0,cwc,2013-03-03 06:05:00,
2013-03-02 23:10:00,34.4,17.1,30.20,WNW,301,3.0,-999.0,52,-99.99,,,0.00,0.0,cwc,2013-03-03 06:10:00,
2013-03-02 23:15:00,34.0,17.1,30.20,WNW,300,2.0,-999.0,53,-99.99,,,0.00,0.0,cwc,2013-03-03 06:15:00,
2013-03-02 23:20:00,33.8,17.2,30.20,WNW,300,4.0,-999.0,54,-99.99,,,0.00,0.0,cwc,2013-03-03 06:20:00,
2013-03-02 23:25:00,33.9,17.3,30.20,WNW,299,2.0,-999.0,54,-99.99,,,0.00,0.0,cwc,2013-03-03 06:25:00,
2013-03-02 23:30:00,34.1,17.5,30.20,WNW,299,2.0,-999.0,54,-99.99,,,0.00,0.0,cwc,2013-03-03 06:30:00,
2013-03-02 23:35:00,33.9,17.3,30.20,WNW,300,1.0,-999.0,54,-99.99,,,0.00,0.0,cwc,2013-03-03 06:35:00,
2013-03-02 23:40:00,33.8,17.6,30.19,WNW,300,2.0,-999.0,55,-99.99,,,0.00,0.0,cwc,2013-03-03 06:40:00,
2013-03-02 23:45:00,33.8,18.7,30.19,WNW,300,3.0,-999.0,58,-99.99,,,0.00,0.0,cwc,2013-03-03 06:45:00,
2013-03-02 23:55:00,33.4,17.2,30.19,WNW,293,3.0,-999.0,55,-99.99,,,0.00,0.0,cwc,2013-03-03 06:55:00,